Home   Weather   Gainesville   Past weeks

Flag for USA Past Weather in Gainesville, Florida, USA — Yesterday and Last 2 Weeks

Now
79 °F

Light rain. Partly sunny.


Feels Like: 82 °F
Forecast: 71 / 86 °F
Wind: 7 mph from Southwest

Location: Gainesville Regional Airport

Current Time: Sep 29, 2016 at 6:15:27 PM

Latest Report: Sep 29, 2016 at 4:53 PM


Visibility: 10 mi

Pressure: 29.96 "Hg

Humidity: 77%

Dew Point: 71 °F

Location of GainesvilleLocation

Past Weather in Gainesville — Graph

°F

Gainesville Temperature Yesterday

Maximum temperature yesterday: 85 °F (at 12:53 PM)
Minimum temperature yesterday: 70 °F (at 4:53 AM)
Average temperature yesterday: 76 °F

High & Low Weather Summary for the Past Weeks

 TemperatureHumidityPressure
High92 °F (Sep 17, 1:53 PM)97% (Sep 15, 3:53 AM)30.09 "Hg (Sep 15, 3:53 AM)
Low69 °F (Sep 29, 4:53 AM)45% (Sep 27, 4:53 PM)29.86 "Hg (Sep 27, 4:53 PM)
Average79 °F79%29.99 "Hg
* Reported Sep 14 4:53 PM — Sep 29 4:53 PM, Gainesville, Weather by CustomWeather, © 2016

Note: Actual official high and low records may vary slightly from our data, if they occured in-between our weather recording intervals... More about our weather records

Advertising

Gainesville Weather History for the Previous 24 Hours

Scroll right to see more
 ConditionsComfort  
Time TempWeatherWind HumidityBarometerVisibility
4:53 PM
Thu, Sep 29
79 °FLight rain. Partly sunny.7 mph77%29.96 "Hg10 mi
3:53 PM83 °FBroken clouds.16 mph72%29.97 "Hg10 mi
2:53 PM87 °FPartly sunny.6 mph65%29.97 "Hg10 mi
1:53 PM86 °FScattered clouds.6 mph70%29.99 "Hg10 mi
12:53 PM83 °FSunny.6 mph72%30.01 "Hg10 mi
11:53 AM84 °FPartly sunny.8 mph70%30.02 "Hg10 mi
10:53 AM81 °FSunny.6 mph77%30.02 "Hg10 mi
9:53 AM76 °FSunny.3 mph88%30.01 "Hg10 mi
8:53 AM75 °FScattered clouds.3 mph88%30.01 "Hg10 mi
7:53 AM71 °FSunny.No wind93%30.00 "Hg10 mi
6:53 AM69 °FClear.No wind93%29.99 "Hg10 mi
5:53 AM69 °FPassing clouds.No wind96%29.98 "Hg10 mi
4:53 AM69 °FClear.3 mph93%29.97 "Hg10 mi
3:53 AM70 °FClear.3 mph93%29.98 "Hg10 mi
2:53 AM70 °FClear.6 mph93%29.98 "Hg10 mi
1:53 AM70 °FClear.3 mph93%30.00 "Hg10 mi
12:53 AM71 °FClear.3 mph93%30.01 "Hg10 mi
11:53 PM
Wed, Sep 28
72 °FClear.3 mph93%30.01 "Hg10 mi
10:53 PM72 °FPassing clouds.3 mph93%30.00 "Hg10 mi
9:53 PM73 °FPassing clouds.5 mph94%30.00 "Hg10 mi
8:53 PM73 °FPassing clouds.5 mph94%29.99 "Hg10 mi
7:53 PM74 °FLight rain. Passing clouds.7 mph91%29.98 "Hg10 mi
6:53 PM75 °FLight rain. Passing clouds.6 mph88%29.98 "Hg10 mi
Weather by CustomWeather, © 2016

See weather overviewHow to use our weather pages